Date,TemperatureHighF,TemperatureAvgF,TemperatureLowF,DewpointHighF,DewpointAvgF,DewpointLowF,HumidityHigh,HumidityAvg,HumidityLow,PressureMaxIn,PressureMinIn,WindSpeedMaxMPH,WindSpeedAvgMPH,GustSpeedMaxMPH,PrecipitationSumIn
2014-1-1,34.3,18.8,9.0,27.5,14.3,3.3,88,82,73,29.90,29.47,0,0,0,0.00
2014-1-2,31.1,15.1,2.1,22.4,9.1,-3.0,85,77,63,29.93,29.84,0,0,0,0.00
2014-1-3,41.0,30.7,14.7,31.0,22.7,10.3,82,73,64,29.84,29.14,1,0,24,0.00
2014-1-4,36.7,26.6,17.8,30.2,20.8,14.9,88,79,67,29.62,29.13,0,0,1,0.00
2014-1-5,18.1,10.4,1.8,15.2,0.4,-11.3,88,64,51,30.08,29.58,0,0,0,0.00
2014-1-6,15.3,2.8,-8.1,-1.6,-10.6,-18.6,62,53,43,30.10,29.90,0,0,0,0.00
2014-1-7,38.7,31.4,14.9,28.4,23.1,8.5,79,72,60,29.64,29.55,0,0,0,0.00
2014-1-8,31.1,26.2,15.3,24.3,19.7,10.8,83,76,65,29.81,29.60,0,0,0,0.00
2014-1-9,34.7,24.2,13.8,33.0,20.8,9.9,96,87,81,29.79,29.42,0,0,0,0.00
2014-1-10,40.3,35.8,33.6,38.8,35.1,33.0,99,98,92,29.40,29.08,0,0,0,0.01
2014-1-11,50.0,37.4,29.1,39.3,33.1,27.9,99,86,61,29.46,29.23,10,1,10,0.00
2014-1-12,56.7,43.8,37.4,40.1,33.5,29.2,79,68,53,29.31,28.98,17,2,17,0.00
2014-1-13,52.9,40.4,31.3,37.6,30.3,26.2,88,69,45,29.49,29.24,0,0,0,0.00
2014-1-14,45.1,39.0,29.5,33.4,23.3,16.6,69,56,34,29.81,29.32,0,0,0,0.00
2014-1-15,50.4,35.5,19.2,33.5,25.5,15.5,88,69,49,29.81,29.34,0,0,0,0.04
2014-1-16,53.2,40.9,29.3,30.3,23.1,14.0,73,52,28,29.69,29.35,0,0,0,0.00
2014-1-17,42.4,32.0,23.9,23.2,16.8,11.7,69,55,39,29.75,29.44,0,0,0,0.00
2014-1-18,52.3,39.6,25.3,29.2,23.5,17.6,74,54,40,29.66,29.34,0,0,0,0.00
2014-1-19,65.5,41.1,23.9,34.1,25.3,17.5,83,59,33,29.64,29.34,0,0,0,0.00
2014-1-20,54.1,37.9,22.8,33.2,23.1,14.2,85,59,34,29.82,29.35,0,0,0,0.00
2014-1-21,29.8,23.1,7.0,9.1,1.8,-6.1,56,41,29,29.61,29.18,0,0,1,0.00
2014-1-22,42.6,26.8,11.5,24.5,11.8,-7.4,82,55,37,29.65,29.23,0,0,0,0.00
2014-1-23,19.0,9.4,3.6,-5.7,-9.2,-12.2,54,43,32,29.96,29.65,0,0,0,0.00
2014-1-24,55.0,31.6,4.6,27.7,10.5,-8.3,56,43,30,29.75,29.01,0,0,1,0.00
2014-1-25,56.7,45.2,34.9,35.3,28.5,20.4,70,54,42,29.20,28.92,0,0,0,0.00
2014-1-26,61.3,46.7,28.8,34.0,28.5,3.5,73,52,34,29.27,28.82,0,0,1,0.00
2014-1-27,19.6,15.8,10.8,-7.1,-9.8,-11.3,39,32,28,30.00,29.91,0,0,0,0.00
2014-1-28,28.2,19.9,9.1,10.1,0.4,-7.1,55,44,31,29.93,29.77,0,0,0,0.00
2014-1-29,48.0,29.9,9.9,18.7,8.9,-3.8,76,47,27,29.77,29.25,0,0,1,0.00
2014-1-30,46.2,35.7,32.5,19.3,12.4,7.6,45,40,32,29.25,29.04,0,0,1,0.00
2014-2-10,12.6,12.0,11.1,4.4,3.9,3.4,70,69,68,29.92,29.91,0,0,0,0.00
2014-2-11,23.9,15.3,10.9,12.7,6.2,3.4,72,67,59,29.94,29.68,0,0,0,0.00
2014-2-12,37.0,26.4,14.9,30.5,20.6,7.0,88,79,70,29.66,29.43,0,0,0,0.00
2014-2-13,48.4,35.9,26.2,36.9,30.2,22.9,89,80,63,29.44,29.21,0,0,0,0.00
2014-2-14,50.2,38.8,26.6,37.6,31.8,22.9,89,76,62,29.59,29.14,0,0,0,0.00
2014-2-15,57.7,40.1,29.8,40.9,31.8,25.9,89,74,53,29.58,29.36,0,0,0,0.00
2014-2-16,54.5,39.5,24.8,40.8,31.8,22.6,95,76,57,29.61,29.24,0,0,1,0.00
2014-2-17,63.5,47.6,34.9,38.9,31.7,26.3,85,59,29,29.58,29.24,0,0,0,0.00
2014-2-18,73.4,53.1,34.9,40.3,31.1,23.7,64,47,27,29.52,29.25,0,0,1,0.00
2014-2-19,61.5,44.9,29.7,35.8,29.8,22.5,86,60,36,29.53,29.00,0,0,0,0.00
2014-2-20,51.3,42.1,33.6,43.3,32.2,21.8,99,71,39,29.44,28.89,1,0,1,0.01
2014-2-21,63.1,41.3,25.5,31.0,23.3,19.3,77,54,29,29.46,29.34,0,0,0,0.00
2014-2-22,60.3,38.3,22.6,33.5,26.4,18.2,89,66,35,29.56,29.38,0,0,0,0.00
2014-2-23,36.1,28.9,18.7,25.0,18.4,11.2,85,66,45,29.84,29.59,0,0,0,0.00
2014-2-24,46.2,29.9,16.5,24.6,17.6,11.5,84,63,41,29.83,29.55,0,0,0,0.00
2014-2-25,27.7,22.1,18.7,19.0,15.9,13.3,81,77,69,29.85,29.78,0,0,0,0.00
2014-3-11,73.8,52.3,33.6,51.9,39.5,32.4,98,66,37,29.65,28.95,0,0,0,0.01
2014-3-12,60.4,42.8,28.0,42.1,31.4,22.9,96,70,36,29.78,29.64,12,2,13,0.00
2014-3-13,74.8,51.4,26.6,38.7,26.0,19.1,75,45,21,29.64,29.25,22,6,27,0.00
2014-3-14,68.4,56.7,42.1,33.4,25.1,17.9,47,33,22,29.52,29.25,0,0,1,0.00
2014-3-21,66.0,55.3,42.3,36.6,30.4,23.9,61,42,27,29.71,29.26,0,0,0,0.00
2014-3-22,50.0,36.6,26.1,30.0,18.4,7.8,71,52,27,30.00,29.72,0,0,0,0.00
2014-3-23,48.9,32.9,16.9,19.9,15.8,11.9,82,54,32,30.03,29.73,0,0,0,0.00
2014-3-24,48.7,34.6,24.8,40.8,21.4,12.6,93,60,44,29.78,29.68,0,0,0,0.01
2014-3-25,49.5,36.1,19.8,28.0,18.0,11.0,86,52,32,29.94,29.63,0,0,0,0.00
2014-3-26,58.5,42.7,31.8,44.1,28.1,15.1,93,58,41,29.63,29.23,1,0,1,0.72
2014-4-10,72.7,63.5,47.7,46.4,39.3,30.4,59,44,33,29.52,29.31,0,0,0,0.00
2014-4-11,85.8,64.1,41.7,55.1,41.9,32.5,72,49,31,29.56,29.33,0,0,0,0.00
2014-4-12,91.2,73.3,61.0,67.9,63.6,56.7,99,75,42,29.34,28.98,19,2,19,0.01
2014-4-13,69.4,64.2,61.0,67.9,62.4,57.4,99,94,82,29.05,28.96,0,0,0,0.00